User: anonymous   Login
Location: Unspecified
(0.0000°N, 0.0000°E)
Time: 19:34:57
(UTC+02:00)
Language:

Ariane H10 - Orbit

View from above orbital plane
View from above orbital plane
View from above satellite
View from above satellite

Ground track
Ground track

The orbit data is extracted from the following two-line orbital elements,

1 21727U 91067B   15186.52074619 -.00000000  00000-0  18589-3 0  9992
2 21727 004.2695 268.3290 7173653 287.0176 139.5177 02.31589110161416
Epoch (UTC): 05 July 2015 12:29:52
Eccentricity: 0.7173653
inclination: 4.2695°
perigee height: 442 km
apogee height: 35064 km
right ascension of ascending node: 268.3290°
argument of perigee: 287.0176°
revolutions per day: 2.31589110
mean anomaly at epoch: 139.5177°
orbit number at epoch: 16141

The dashed part of the orbit path shows where the satellite is in the earth's shadow,  

DLR